683  
ASUS46 KSGX 252211  
RWRSGX  
 
SAN DIEGO HOURLY WEATHER ROUNDUP  
NATIONAL WEATHER SERVICE SAN DIEGO CA  
300 PM PDT TUE JUN 25 2019  
 
NOTE: "FAIR" INDICATES FEW OR NO CLOUDS BELOW 12,000 FEET WITH NO  
SIGNIFICANT WEATHER AND/OR S TO VISIBILITY
.  
 
CAZ042-043-060-061-PZZ750-775-252300-  
 
GREATER SAN DIEGO AREA  
 
CITY SKY/WX TMP DP RH WIND PRES REMARKS
 
SAN DIEGO AP CLOUDY 68 57 68 W9G17 29.94F  
NATIONAL CITY N/A 71 60 68 W5 29.93F  
CHULA VISTA N/A 70 60 72 W6 29.84F  
BROWN FIELD PTSUNNY 69 56 62 W12G17 29.92F  
MIRAMAR MCAS CLOUDY 70 56 61 W9 29.93S  
MONTGOMERY FLD PTSUNNY 67 56 67 W8 29.93F  
GILLESPIE FLD MOSUNNY 75 57 53 SW7 29.91F  
 

 
 
NORTH SAN DIEGO COUNTY  
 
CITY SKY/WX TMP DP RH WIND PRES REMARKS
 
CAMP PENDLETON CLOUDY 64 59 83 W8 29.93F  
OCEANSIDE AP CLOUDY 67 58 72 W6 29.92F  
OCEANSIDE HBR N/A 65 60 84 CALM 29.95F  
VISTA N/A 64 58 83 CALM 29.90F  
CARLSBAD CLOUDY 64 58 80 SW7 29.92F  
DEL MAR N/A 64 59 84 W2 29.95S  
LA JOLLA SCRIP N/A 63 59 87 W6 29.93F  
FALLBROOK CLOUDY 64 57 77 SW8 29.93F  
ESCONDIDO N/A 69 60 72 CALM 29.92S  
SAN MARCOS N/A 64 59 83 NW6 29.96S  
POWAY N/A 71 59 64 W3 29.92F  
 

 
 
EAST SAN DIEGO COUNTY  
 
CITY SKY/WX TMP DP RH WIND PRES REMARKS
 
RAMONA PTSUNNY 70 56 61 NW7 29.92F  
SANTEE LAKES N/A 72 60 65 SW7 29.88F  
LA MESA N/A 71 59 66 SW3 29.86F  
JAMUL N/A 74 61 64 CALM 29.89F  
DESCANSO N N/A 73 58 60 W7 29.80S  
MT. LAGUNA OBS N/A 80 47 31 SW12 29.70F  
CAMPO N/A 78 53 41 SW16 29.88F  
 

 
 
ORANGE COUNTY AND THE LOS ANGELES BASIN  
 
CITY SKY/WX TMP DP RH WIND PRES REMARKS
 
JOHN WAYNE AP CLOUDY 65 57 75 S9 29.92F  
LAGUNA BEACH N/A 64 60 86 S2 29.92F  
LAKE FOREST FR N/A 63 56 79 CALM 29.81F  
HUNTINGTON BCH N/A 67 61 80 S3 29.93S  
LOS ALAMITOS CLOUDY 68 58 71 SW9 29.92S  
FULLERTON CLOUDY 69 57 65 SW5 29.91S  
LONG BEACH CLOUDY 68 56 65 S8 29.92S  
L.A. AP CLOUDY 64 58 80 SW9 29.93S  
L.A. DOWNTOWN CLOUDY 68 59 73 W5 29.91S  
 

 
 
THE INLAND EMPIRE  
 
CITY SKY/WX TMP DP RH WIND PRES REMARKS
 
CORONA MOSUNNY 72 61 68 W14 29.90  
CHINO PTSUNNY 75 59 57 W14G21 29.91F  
ONTARIO PTSUNNY 78 61 55 SW10 29.90F  
SAN BERNARDINO MOSUNNY 81 54 39 W6 29.89F HAZE  
RIVERSIDE AP MOSUNNY 76 59 55 W9 29.89F  
MORENO VALLEY N/A 78 64 60 SE1 28.01F  
MARCH ARB MOSUNNY 78 58 49 NW7 29.89F  
HORSETHIEF CYN N/A 76 56 49 E6 29.86F  
PERRIS N/A 80 61 52 S5 N/A  
HEMET EAST N/A 76 53 44 W2 29.88F  
FRENCH VALLEY FAIR 70 57 64 SW7 29.92F  
TEMECULA N/A 68 62 79 SW5 29.88F  
 

 
 
SAN BERNARDINO AND RIVERSIDE COUNTY MOUNTAINS  
 
CITY SKY/WX TMP DP RH WIND PRES REMARKS
 
BIG BEAR AP SUNNY 70 34 26 W16 30.10S  
ANGELUS OAKS N/A 68 49 51 CALM 29.71S  
 

 
 
SOUTHERN DESERT INCLUDING THE COACHELLA VALLEY  
 
CITY SKY/WX TMP DP RH WIND PRES REMARKS
 
PALM SPRINGS PTSUNNY 95 50 21 W9 29.76F  
THOUSAND PALMS N/A 96 52 22 NE3 29.71F  
PALM DESERT N/A 96 53 23 N2 31.75R  
THERMAL CLOUDY 96 48 19 VRB6 29.70F  
BORREGO AP NOT AVBL  
BLYTHE MOSUNNY 99 38 12 S16G24 29.73F  
IMPERIAL AP SUNNY 100 47 16 E5 29.69F HX 96  
EL CENTRO NAS MOSUNNY 100 42 13 E7 29.70F HX 95  
YUMA AZ MOSUNNY 100 39 12 S13G22 29.72F HX 95  
MEXICALI MOSUNNY 99 37 12 SE22 29.72F  
 

 
 
UPPER DESERT  
 
CITY SKY/WX TMP DP RH WIND PRES REMARKS
 
VICTORVILLE AP SUNNY N/A N/A N/A SE20G30 29.85F  
HESPERIA N/A 82 42 24 W26 29.76F  
APPLE VALLEY N/A 85 38 18 N15 29.77F  
PALMDALE SUNNY 89 45 21 SW22 29.84F  
LANCASTER SUNNY 89 47 23 SW24G33 29.84S  
EDWARDS AFB PTSUNNY 93 37 14 SW20G30 29.78F  
DAGGETT MOSUNNY 98 33 10 NW8 29.76F  
29 PALMS N PTSUNNY 96 34 11 SW20 29.85F  
NEEDLES CLOUDY 102 25 6 SW23G29 29.74F HX 95  
 

 
 
REGIONAL REPORTS  
 
CITY SKY/WX TMP DP RH WIND PRES REMARKS
 
SANTA BARBARA CLOUDY 63 57 81 W7 29.91F  
SANDBERG MOSUNNY 74 51 44 S14 30.01S  
LAS VEGAS NV CLOUDY 99 21 6 S14G25 29.75F  
PHOENIX AZ PTSUNNY 104 28 7 S15G26 29.73F HX 97  
TIJUANA MOSUNNY 70 57 64 W9 29.95F  
ENSENADA NW N/A 67 32 26 W1 29.88F  
 

 
 
OFFSHORE ISLANDS  
 
CITY SKY/WX TMP DP RH WIND PRES REMARKS
 
CATALINA ARPT FOG 56 56 100 W7 29.94F VSB<1/4  
SAN CLEMENTE I CLOUDY 63 53 70 W7 29.95F  
SAN NICOLAS IS PTSUNNY 64 52 64 E6 29.93F  
 

 
 
MARINE AND OFFSHORE BUOY REPORTS  
 
STATION/POSITION SKY/WX TEMP WIND PRES VSBY SWELL
 
AIR SEA DIR/SP/G HT/PER/DIR  
(F) (DEG/KT/KT) (MB) (MI) (FT/S/D)  
TANNER BANKS 61 63 250/ 4/ 6 1013.7F 3/170/14  
S CLEMENTE BASIN 62 67 260/ 4/ 6 1013.8F 3/180/14  
SAN NICOLAS IS. 62 N/A 2/180/14  
SO. S. ROSA ISLA 60 64 230/ 6/ 8 1014.0F 5/180/14  
W. S. BARBARA CH 1013.0F 3/300/ 8  
M. S. BARBARA CH 61 63 270/ 4/ 6 1013.6  
S. MONICA BASIN 62 67 220/ 6/ 10 1013.9S 2/150/15  
S PEDRO CHANNEL 67 N/A 2/160/15  
CMP PENDLETON NS 65 N/A 2/210/14  
OCEANSIDE OFFSHR 67 N/A 2/190/14  
TORREY PINES OTR 67 N/A 2/200/14  
SAN DIEGO BAY 67 1013.1F  
IMPERIAL BEACH 64 N/A 2/230/13  
POINT LOMA SOUTH 67 N/A 2/180/14  
 

 
 
 
 
CLICK HERE TO GO TO PREVIOUS BULLETINS.

The Nexlab CA Page Main Text Page